PBO Station Position Time Series. Reference Frame : NAM14
Format Version,1.1.0
4-character ID,SAV5
Station name,Savannah_5
Begin Date, 2007-10-31
End Date, 2016-08-04
Release Date, 2021-02-19
Reference position, 32.1386002340 North Latitude, -81.6963360108 East Longitude, 8.57046 meters elevation,
Date, North (mm), East (mm), Vertical (mm), North Std. Deviation (mm), East Std. Deviation (mm),              Vertical Std. Deviation (mm), Quality,
2007-10-31,0.00, 0.00, 0.00, 1.75, 1.71, 7.36, repro,
2007-11-01,0.48, 1.00, 7.37, 1.79, 1.71, 7.46, repro,
2007-11-02,-0.12, 0.77, 5.74, 1.78, 1.69, 7.39, repro,
2007-11-03,-0.11, 1.13, 3.07, 1.84, 1.76, 7.66, repro,
2007-11-04,0.97, 1.66, 1.40, 1.80, 1.75, 7.50, repro,
2007-11-05,1.24, 1.36, -4.18, 1.82, 1.77, 7.64, repro,
2007-11-06,-0.38, 0.39, -0.13, 1.86, 1.83, 7.82, repro,
2007-11-07,0.24, 1.17, -3.65, 1.91, 1.86, 7.98, repro,
2007-11-09,5.45, 2.02, 5.58, 2.89, 2.97, 12.77, repro,
2007-11-10,1.59, 1.57, 3.48, 1.80, 1.75, 7.51, repro,
2007-11-11,0.70, 0.39, 3.47, 1.79, 1.74, 7.47, repro,
2007-11-12,1.20, 1.47, -0.11, 1.87, 1.83, 7.79, repro,
2007-11-13,0.29, 1.17, 8.03, 1.78, 1.73, 7.47, repro,
2007-11-14,0.42, 0.67, 9.13, 1.80, 1.75, 7.54, repro,
2007-11-15,-1.17, 2.18, 9.91, 1.79, 1.74, 7.51, repro,
2007-11-16,0.46, 1.87, 9.39, 1.91, 1.81, 7.90, repro,
2007-11-17,3.68, 1.76, 13.52, 2.12, 2.02, 8.63, repro,
2007-11-18,-1.27, 1.47, 5.44, 1.79, 1.73, 7.45, repro,
2007-11-19,0.51, 1.42, 10.72, 1.77, 1.73, 7.43, repro,
2007-11-20,1.41, 0.42, 7.67, 1.85, 1.83, 7.84, repro,
2007-11-21,0.90, 1.49, 9.10, 1.85, 1.82, 7.74, repro,
2007-11-22,-2.06, 1.76, 5.50, 1.81, 1.78, 7.56, repro,
2007-11-23,-0.18, 1.85, 4.87, 1.93, 1.78, 7.99, repro,
2007-11-24,-1.69, 0.71, -1.06, 1.98, 1.83, 8.30, repro,
2007-11-25,-2.45, 1.73, 0.14, 1.96, 1.84, 8.08, repro,
2007-11-26,-1.86, 2.34, 8.40, 1.92, 1.80, 8.06, repro,
2007-11-27,-0.11, 0.74, 5.79, 1.94, 1.84, 8.07, repro,
2007-11-28,1.12, 0.39, 2.82, 2.14, 1.98, 8.77, repro,
2007-11-29,-2.92, 0.70, 6.14, 1.90, 1.80, 7.77, repro,
2007-11-30,-1.52, 0.66, 5.82, 1.85, 1.78, 7.61, repro,
2007-12-01,-0.60, 1.31, 0.19, 1.83, 1.77, 7.62, repro,
2007-12-02,-0.24, 2.35, 2.05, 1.81, 1.75, 7.54, repro,
2007-12-03,-2.09, 0.60, 12.93, 2.10, 2.17, 9.16, repro,
2007-12-04,-0.33, 2.31, 11.73, 1.98, 1.87, 8.32, repro,
2007-12-05,0.20, 1.88, 14.45, 2.00, 1.96, 8.29, repro,
2007-12-06,0.52, 1.43, 4.25, 1.88, 1.80, 7.74, repro,
2007-12-07,-0.93, 2.12, 2.69, 1.98, 1.85, 8.08, repro,
2007-12-08,-1.61, 2.51, 4.77, 1.82, 1.74, 7.53, repro,
2007-12-09,0.53, 1.49, 1.49, 1.80, 1.74, 7.54, repro,
2007-12-10,-0.55, 1.78, 6.57, 1.87, 1.77, 7.80, repro,
2007-12-11,-0.16, 0.97, 6.19, 1.80, 1.76, 7.57, repro,
2007-12-12,-0.81, 1.24, 9.98, 1.86, 1.83, 7.87, repro,
2007-12-13,-0.87, 0.89, 8.54, 1.84, 1.79, 7.67, repro,
2007-12-14,-0.54, 2.00, 7.55, 1.78, 1.74, 7.40, repro,
2007-12-15,-1.64, 1.97, 11.28, 1.97, 2.09, 8.67, repro,
2007-12-16,-0.95, -0.31, 11.32, 1.83, 1.83, 7.87, repro,
2007-12-17,2.07, 2.10, 6.17, 2.38, 2.31, 9.88, repro,
2007-12-18,1.96, 2.63, -2.63, 2.66, 2.56, 11.52, repro,
2007-12-19,0.14, 2.07, 1.15, 1.95, 1.85, 7.97, repro,
2007-12-20,-0.34, 2.45, 7.90, 1.79, 1.74, 7.44, repro,
2007-12-21,-2.97, 0.74, 6.49, 1.81, 1.76, 7.59, repro,
2007-12-22,-1.79, 1.07, 7.34, 1.83, 1.81, 7.68, repro,
2007-12-23,-0.38, 2.95, 8.45, 1.84, 1.78, 7.68, repro,
2007-12-24,-1.50, 1.90, 8.98, 1.97, 1.87, 7.96, repro,
2007-12-25,-4.08, 1.57, 5.98, 2.17, 2.06, 8.95, repro,
2007-12-26,-2.85, 3.63, 6.83, 1.95, 1.93, 8.22, repro,
2007-12-27,-2.13, 1.58, 5.74, 1.90, 1.87, 7.91, repro,
2007-12-28,-1.13, 2.45, 4.81, 1.85, 1.81, 7.67, repro,
2007-12-29,-1.33, 3.63, 7.47, 1.82, 1.81, 7.52, repro,
2007-12-30,-1.51, 1.40, -2.33, 1.87, 1.83, 7.64, repro,
2007-12-31,1.14, 1.46, 12.64, 1.82, 1.74, 7.61, repro,
2008-01-01,-0.42, 2.98, 3.40, 1.82, 1.74, 7.52, repro,
2008-01-02,-0.05, 2.38, 2.77, 2.21, 2.13, 9.22, repro,
2008-01-03,3.31, 3.98, -2.91, 5.13, 3.67, 17.34, repro,
2008-01-04,3.90, -0.20, -3.07, 3.35, 3.04, 13.15, repro,
2008-01-05,-0.33, 1.31, -4.03, 2.50, 2.41, 10.23, repro,
2008-01-06,-0.20, 1.54, 8.03, 1.79, 1.74, 7.45, repro,
2008-01-07,0.98, 1.51, 2.33, 1.80, 1.76, 7.46, repro,
2008-01-08,-0.10, 1.11, -1.94, 1.82, 1.80, 7.55, repro,
2008-01-09,-3.13, 0.07, 9.00, 2.04, 2.06, 8.63, repro,
2008-01-10,-0.15, 0.19, 9.07, 1.76, 1.70, 7.31, repro,
2008-01-11,-2.48, 0.69, 9.07, 1.80, 1.77, 7.62, repro,
2008-01-12,-2.49, 0.64, 9.15, 1.79, 1.78, 7.63, repro,
2008-01-13,-0.43, 0.98, 1.99, 1.78, 1.76, 7.47, repro,
2008-01-14,-0.57, 1.55, -0.50, 1.90, 1.83, 8.17, repro,
2008-01-15,-0.58, 1.24, -1.37, 2.19, 2.04, 9.37, repro,
2008-01-16,-1.87, -0.37, -1.57, 2.26, 2.19, 9.55, repro,
2008-01-17,-0.83, 1.01, -6.08, 1.96, 1.94, 8.39, repro,
2008-01-18,-1.61, 1.18, 7.45, 1.88, 1.79, 7.90, repro,
2008-01-19,-2.63, -0.13, -0.95, 1.92, 1.94, 8.35, repro,
2008-01-20,0.36, 1.10, -5.11, 2.00, 1.94, 8.49, repro,
2008-01-21,0.60, -0.32, -15.15, 3.60, 2.98, 14.04, repro,
2008-01-22,0.32, 1.60, -11.45, 2.02, 2.03, 8.92, repro,
2008-01-23,-1.75, 0.99, -0.62, 1.79, 1.73, 7.52, repro,
2008-01-24,-1.92, -0.53, -4.65, 1.80, 1.75, 7.67, repro,
2008-01-25,0.42, 1.19, -4.08, 1.96, 2.00, 8.66, repro,
2008-01-26,-0.79, -0.81, -3.81, 1.87, 1.85, 7.94, repro,
2008-01-27,0.28, 1.23, -1.68, 1.93, 1.90, 8.21, repro,
2008-01-28,0.50, 0.79, 0.10, 1.81, 1.82, 7.82, repro,
2008-01-29,-1.17, 0.93, 4.90, 1.95, 1.93, 8.49, repro,
2008-01-30,1.18, 1.53, 0.11, 1.96, 1.90, 8.37, repro,
2008-01-31,-1.71, -1.31, -3.52, 1.83, 1.82, 7.88, repro,
2008-02-01,-3.10, 0.07, -4.33, 1.90, 1.87, 8.11, repro,
2008-02-02,-0.28, -0.08, -1.84, 1.85, 1.83, 7.93, repro,
2008-02-03,1.19, 1.98, -1.42, 1.83, 1.80, 7.82, repro,
2008-02-04,0.11, 0.59, -1.39, 1.76, 1.71, 7.37, repro,
2008-02-05,-0.05, 0.52, 1.72, 1.89, 1.83, 8.06, repro,
2008-02-06,-1.36, -1.86, 1.59, 1.85, 1.76, 7.90, repro,
2008-02-07,-0.25, 0.80, -3.69, 1.95, 1.90, 8.07, repro,
2008-02-08,0.79, 0.09, -3.38, 1.82, 1.78, 7.75, repro,
2008-02-09,-0.59, -0.27, -0.10, 1.78, 1.71, 7.41, repro,
2008-02-10,-1.26, -0.56, -7.47, 1.74, 1.67, 7.14, repro,
2008-02-11,0.44, 0.58, -7.76, 1.76, 1.68, 7.27, repro,
2008-02-12,-2.32, -0.74, -4.53, 1.76, 1.70, 7.31, repro,
2008-02-13,-3.08, 1.15, 3.75, 1.77, 1.70, 7.32, repro,
2008-02-14,0.65, 0.16, -2.83, 1.76, 1.71, 7.33, repro,
2008-02-15,0.12, -0.17, -2.24, 1.80, 1.68, 7.37, repro,
2008-02-16,0.61, -0.04, -2.60, 1.76, 1.67, 7.25, repro,
2008-02-17,0.08, 0.50, -0.74, 1.76, 1.70, 7.31, repro,
2008-02-18,0.07, 1.10, 1.91, 1.83, 1.78, 7.63, repro,
2008-02-19,-0.34, -0.63, -6.53, 1.76, 1.71, 7.31, repro,
2008-02-20,0.98, -1.00, -4.42, 1.75, 1.68, 7.24, repro,
2008-02-21,-2.00, -1.84, -6.04, 1.74, 1.68, 7.23, repro,
2008-02-22,-1.43, 0.07, -6.04, 1.76, 1.71, 7.32, repro,
2008-02-23,-2.12, -1.78, -11.52, 1.77, 1.71, 7.40, repro,
2008-02-24,-0.54, -0.18, -2.35, 1.76, 1.70, 7.33, repro,
2008-02-25,-0.09, -0.75, -3.52, 1.75, 1.68, 7.28, repro,
2008-02-26,-3.84, -1.37, 0.57, 1.83, 1.83, 7.76, repro,
2008-02-27,-1.40, 0.13, -3.62, 1.76, 1.69, 7.28, repro,
2008-02-28,-0.23, 0.46, -5.98, 2.01, 1.88, 8.36, repro,
2008-02-29,2.67, -0.37, -3.22, 2.80, 2.46, 11.34, repro,
2008-03-01,-0.64, -0.35, -3.50, 1.79, 1.74, 7.41, repro,
2008-03-02,0.47, -0.38, -5.21, 1.90, 1.84, 7.73, repro,
2008-03-03,-0.93, 0.38, 0.56, 1.76, 1.68, 7.30, repro,
2008-03-04,-3.24, -0.34, 1.28, 1.77, 1.67, 7.24, repro,
2008-03-05,-1.07, 1.40, -2.96, 2.13, 2.04, 9.25, repro,
2008-03-06,0.08, -0.91, -3.02, 2.17, 2.20, 8.86, repro,
2008-03-07,-2.29, 0.54, -7.93, 1.78, 1.75, 7.35, repro,
2008-03-08,-0.69, -0.74, 0.42, 2.00, 1.84, 8.16, repro,
2008-03-09,-0.10, 0.30, -2.97, 1.81, 1.76, 7.44, repro,
2008-03-10,-3.65, 0.28, -9.95, 2.37, 2.46, 9.86, repro,
2008-03-11,-0.88, -1.30, -2.56, 1.78, 1.72, 7.37, repro,
2008-03-12,-2.37, 1.27, 5.45, 1.89, 1.91, 8.05, repro,
2008-03-13,-0.36, -0.51, 6.23, 1.93, 1.81, 7.94, repro,
2008-03-14,-2.40, -0.56, 7.62, 1.81, 1.74, 7.50, repro,
2008-03-15,-1.64, 1.18, 8.70, 1.81, 1.76, 7.50, repro,
2008-03-16,0.56, 0.74, -12.35, 2.01, 1.96, 8.56, repro,
2008-03-17,-1.42, -0.29, -7.92, 1.98, 1.92, 8.12, repro,
2008-03-18,-1.41, 0.45, 2.17, 1.84, 1.80, 7.72, repro,
2008-03-19,-1.93, 0.65, 2.99, 1.81, 1.78, 7.56, repro,
2008-03-20,0.30, 0.69, -3.29, 1.86, 1.82, 7.68, repro,
2008-03-21,-0.09, -0.66, -3.27, 1.81, 1.76, 7.40, repro,
2008-03-22,-0.18, 1.01, 3.71, 1.79, 1.75, 7.31, repro,
2008-03-23,-1.65, 1.22, -5.06, 1.78, 1.76, 7.29, repro,
2008-03-24,-0.63, 1.14, -3.69, 1.80, 1.78, 7.41, repro,
2008-03-25,-0.67, -0.31, -7.58, 1.84, 1.78, 7.69, repro,
2008-03-26,-0.21, -0.11, -4.07, 1.82, 1.71, 7.47, repro,
2008-03-27,-1.12, 0.34, 3.47, 1.82, 1.76, 7.56, repro,
2008-03-28,-1.85, 1.16, 5.68, 1.81, 1.79, 7.47, repro,
2008-03-29,-0.89, -0.96, 3.38, 1.75, 1.70, 7.15, repro,
2008-03-30,-1.40, 0.37, 6.28, 1.74, 1.69, 7.14, repro,
2008-03-31,-2.36, 0.11, 5.40, 1.74, 1.69, 7.11, repro,
2008-04-01,-0.88, 0.80, 9.28, 1.82, 1.80, 7.51, repro,
2008-04-02,-0.76, -0.35, 8.58, 1.78, 1.75, 7.32, repro,
2008-04-03,-2.14, 1.27, 9.04, 1.76, 1.72, 7.20, repro,
2008-04-04,-1.89, 1.37, 3.52, 1.76, 1.71, 7.24, repro,
2008-04-05,-2.57, 0.16, 5.23, 1.79, 1.72, 7.26, repro,
2008-04-06,-0.34, -1.28, 7.13, 1.77, 1.68, 7.21, repro,
2008-04-07,-2.74, 0.46, 1.83, 1.74, 1.67, 7.09, repro,
2008-04-08,-1.34, 1.05, -0.63, 1.74, 1.70, 7.16, repro,
2008-04-09,-1.54, 0.27, -1.02, 1.74, 1.67, 7.09, repro,
2008-04-10,-1.78, -0.43, 0.31, 1.74, 1.67, 7.13, repro,
2008-04-11,-0.06, 0.02, 4.10, 1.74, 1.67, 7.08, repro,
2008-04-12,-2.54, 0.08, 5.63, 1.98, 1.80, 7.86, repro,
2008-04-13,-2.53, 1.20, 6.16, 1.75, 1.70, 7.21, repro,
2008-04-14,-1.18, 0.89, 1.08, 1.74, 1.69, 7.12, repro,
2008-04-15,-1.58, 2.36, 2.85, 1.78, 1.71, 7.19, repro,
2008-04-16,-1.84, 0.76, -0.87, 1.77, 1.71, 7.19, repro,
2008-04-17,-2.57, 1.32, -2.81, 1.74, 1.68, 7.15, repro,
2008-04-18,-1.29, -0.08, -0.04, 1.74, 1.67, 7.14, repro,
2008-04-19,-1.44, 1.17, 7.88, 1.75, 1.70, 7.25, repro,
2008-04-20,-2.72, -2.66, -8.74, 2.24, 2.22, 9.38, repro,
2008-04-21,-2.03, 0.45, 2.57, 1.75, 1.67, 7.16, repro,
2008-04-22,-1.74, -0.23, -0.89, 1.74, 1.66, 7.14, repro,
2008-04-23,-1.72, 1.34, -2.85, 1.81, 1.75, 7.56, repro,
2008-04-24,-2.43, -0.44, 0.32, 1.79, 1.73, 7.44, repro,
2008-04-25,-2.53, 0.14, 3.81, 1.74, 1.70, 7.18, repro,
2008-04-26,-1.71, 0.34, 4.72, 1.92, 1.86, 8.31, repro,
2008-04-27,-1.80, 0.27, -4.18, 1.83, 1.76, 7.58, repro,
2008-04-28,-1.20, 0.38, 17.38, 1.90, 1.77, 8.11, repro,
2008-04-29,-2.19, 0.68, 3.12, 1.78, 1.79, 7.59, repro,
2008-04-30,-2.83, -0.42, 3.15, 1.81, 1.86, 7.57, repro,
2008-05-01,-2.06, -0.42, 0.76, 1.78, 1.74, 7.40, repro,
2008-05-02,-1.91, 0.05, 1.01, 1.76, 1.70, 7.27, repro,
2008-05-03,-1.10, 0.76, 7.12, 1.76, 1.69, 7.26, repro,
2008-05-04,-3.16, -1.41, 2.98, 1.77, 1.70, 7.33, repro,
2008-05-05,-3.06, -0.14, -1.98, 1.79, 1.77, 7.51, repro,
2008-05-06,-2.98, 1.67, 13.19, 1.85, 1.82, 7.85, repro,
2008-05-07,-1.48, 0.82, 1.88, 1.75, 1.68, 7.23, repro,
2008-05-08,-2.75, -0.16, 5.76, 1.78, 1.68, 7.30, repro,
2008-05-09,-2.70, 1.03, 6.82, 2.03, 1.93, 8.33, repro,
2008-05-10,-1.54, 0.52, 1.70, 1.78, 1.70, 7.35, repro,
2008-05-11,-4.85, 4.57, 11.15, 1.96, 1.90, 8.09, repro,
2008-05-12,-2.27, 0.80, 8.59, 1.77, 1.71, 7.32, repro,
2008-05-13,-2.45, 0.89, 3.26, 1.77, 1.71, 7.37, repro,
2008-05-14,-1.80, 0.19, 5.85, 1.76, 1.68, 7.28, repro,
2008-05-15,-0.83, 0.87, 1.92, 1.81, 1.74, 7.55, repro,
2008-05-16,-2.89, 0.99, 4.24, 1.78, 1.71, 7.40, repro,
2008-05-17,-1.57, 0.61, 1.73, 1.79, 1.73, 7.42, repro,
2008-05-18,-2.28, 1.92, 9.23, 1.81, 1.77, 7.60, repro,
2008-05-19,-2.68, 0.01, 4.00, 1.77, 1.68, 7.30, repro,
2008-05-20,-2.21, 1.33, 9.55, 1.77, 1.68, 7.30, repro,
2008-05-21,-4.51, 2.55, 7.89, 1.84, 1.82, 7.67, repro,
2008-05-22,-2.81, 1.18, 4.83, 1.85, 1.74, 7.61, repro,
2008-05-23,-2.48, 0.50, 12.16, 1.78, 1.71, 7.47, repro,
2008-05-24,-1.05, 0.10, 2.94, 1.97, 1.83, 8.50, repro,
2008-05-25,-1.25, -0.44, 5.97, 1.81, 1.69, 7.41, repro,
2008-05-26,-2.33, 0.57, 2.89, 1.84, 1.71, 7.54, repro,
2008-05-27,-1.82, -0.69, -4.93, 1.86, 1.73, 7.69, repro,
2008-05-28,-2.22, 0.52, 1.73, 1.88, 1.80, 7.95, repro,
2008-05-29,-0.73, 0.06, 8.96, 2.39, 2.28, 10.04, repro,
2008-05-30,-1.23, 0.79, 2.04, 1.80, 1.70, 7.43, repro,
2008-05-31,-2.17, 0.49, 6.78, 1.82, 1.72, 7.52, repro,
2008-06-01,-2.73, -0.19, 1.74, 2.07, 1.95, 8.87, repro,
2008-06-02,-1.86, 1.68, 10.53, 1.87, 1.82, 7.68, repro,
2008-06-03,-2.87, -1.00, 2.48, 2.45, 2.45, 10.55, repro,
2008-06-05,-2.98, -0.71, 13.29, 2.16, 2.15, 9.03, repro,
2008-06-06,-1.94, 0.36, 13.32, 1.79, 1.75, 7.45, repro,
2008-06-07,-3.65, -0.91, 22.00, 1.87, 1.79, 7.80, repro,
2008-06-08,-1.09, 0.00, 2.04, 1.92, 1.85, 8.30, repro,
2008-06-09,-3.76, -1.26, 7.49, 1.79, 1.73, 7.52, repro,
2008-06-10,-2.85, -0.76, 13.74, 1.83, 1.76, 7.69, repro,
2008-06-12,1.00, 0.51, 2.94, 1.93, 1.89, 8.23, repro,
2008-06-13,-1.09, 1.47, -0.44, 1.84, 1.78, 7.80, repro,
2008-06-14,-2.50, 0.21, -0.61, 1.80, 1.79, 7.67, repro,
2008-06-15,-3.49, -1.11, 2.43, 1.99, 2.01, 8.42, repro,
2008-06-16,-2.72, 0.31, -4.86, 1.77, 1.72, 7.45, repro,
2008-06-17,-2.92, -0.30, -1.46, 1.76, 1.70, 7.37, repro,
2008-06-20,-4.64, 1.38, -3.05, 1.78, 1.72, 7.42, repro,
2008-06-21,-2.96, -0.32, 8.65, 1.88, 1.78, 7.84, repro,
2008-06-22,-1.49, -1.38, 7.23, 1.87, 1.76, 7.71, repro,
2008-06-23,-2.68, -0.92, 8.96, 1.85, 1.73, 7.86, repro,
2008-06-24,-2.24, -0.81, -1.40, 1.84, 1.75, 7.89, repro,
2008-06-25,0.20, -2.40, -4.06, 1.88, 1.83, 7.76, repro,
2008-06-26,-4.47, 0.68, 9.18, 2.02, 1.83, 8.42, repro,
2008-06-27,-2.27, 0.58, -1.89, 1.86, 1.80, 7.87, repro,
2008-06-28,-1.17, -0.21, 5.10, 1.85, 1.75, 7.89, repro,
2008-06-29,-3.66, -1.60, 3.00, 1.87, 1.80, 8.07, repro,
2008-06-30,-3.74, 1.94, 22.05, 1.88, 1.81, 7.86, repro,
2008-07-01,-3.76, -0.14, 1.06, 1.99, 1.82, 8.45, repro,
2008-07-02,-1.73, -0.53, 8.26, 1.85, 1.81, 7.82, repro,
2008-07-03,-3.49, 0.32, 10.50, 2.12, 2.18, 9.02, repro,
2008-07-04,-4.90, -2.34, 6.68, 2.09, 1.95, 8.40, repro,
2008-07-05,-2.32, -0.73, -3.40, 1.91, 1.85, 8.02, repro,
2008-07-06,-2.26, -0.56, 2.28, 1.81, 1.74, 7.70, repro,
2008-07-07,-3.29, 0.53, 5.94, 1.93, 1.78, 8.36, repro,
2008-07-08,-3.24, 0.81, 18.41, 1.79, 1.74, 7.56, repro,
2008-07-09,-4.13, 0.12, 5.87, 1.85, 1.74, 7.95, repro,
2008-07-10,-2.59, -1.76, 20.35, 1.88, 1.88, 7.95, repro,
2008-07-11,-3.66, 1.46, 20.49, 1.99, 1.90, 8.50, repro,
2008-07-12,-4.80, 0.86, 9.94, 2.13, 2.15, 9.06, repro,
2008-07-13,-4.40, -2.35, 12.60, 1.91, 1.76, 8.20, repro,
2008-07-14,-2.21, -0.81, 22.38, 2.03, 1.96, 8.49, repro,
2008-07-15,-3.22, -1.08, 12.18, 1.98, 1.94, 8.16, repro,
2008-07-16,-6.09, 0.28, 7.72, 1.96, 2.00, 8.43, repro,
2008-07-17,-3.28, -0.66, 11.65, 1.77, 1.72, 7.52, repro,
2008-07-18,-3.35, 0.31, 17.67, 1.84, 1.88, 7.93, repro,
2008-07-19,-2.97, 0.09, 7.24, 1.77, 1.76, 7.65, repro,
2008-07-20,-2.86, -0.61, 9.41, 1.84, 1.81, 7.95, repro,
2008-07-21,-0.58, 1.69, 3.19, 1.83, 1.76, 7.76, repro,
2008-07-22,-3.60, 1.22, 6.84, 1.81, 1.72, 7.71, repro,
2008-07-23,-3.85, 1.87, 6.30, 1.86, 1.87, 8.22, repro,
2008-07-24,-5.06, -0.74, 16.50, 2.09, 2.01, 8.63, repro,
2008-07-25,-2.71, -1.64, 31.29, 5.00, 5.51, 24.38, repro,
2008-07-30,-4.20, 5.51, 8.51, 3.87, 3.85, 16.42, repro,
2008-08-01,-2.33, 0.36, 10.40, 2.30, 2.07, 9.48, repro,
2008-08-02,0.74, 2.96, 8.48, 1.75, 1.72, 7.46, repro,
2008-08-03,-3.84, 1.84, 8.49, 1.96, 1.81, 8.34, repro,
2008-08-04,-4.48, -1.06, 17.25, 2.49, 2.31, 10.41, repro,
2008-08-05,-2.96, -1.51, 7.52, 1.78, 1.72, 7.50, repro,
2008-08-06,-4.59, 0.96, 8.24, 1.85, 1.77, 7.98, repro,
2008-08-07,-2.41, -1.63, 14.87, 2.38, 2.40, 10.17, repro,
2008-08-08,-1.99, 2.71, 6.21, 1.99, 1.86, 8.34, repro,
2008-08-09,-3.97, -1.60, 3.37, 1.91, 1.84, 7.94, repro,
2008-08-10,-3.78, 0.64, 15.77, 1.78, 1.73, 7.54, repro,
2008-08-11,-3.79, 2.98, 14.83, 2.14, 2.05, 8.94, repro,
2008-08-12,-3.94, 1.61, 11.80, 1.75, 1.70, 7.42, repro,
2008-08-13,-3.47, 2.04, 18.50, 2.09, 2.06, 8.75, repro,
2008-08-14,-3.26, 1.09, 13.46, 1.88, 1.75, 7.81, repro,
2008-08-15,-3.95, 2.53, 5.82, 2.07, 2.00, 8.97, repro,
2008-08-16,-2.54, 1.80, 2.27, 1.81, 1.73, 7.61, repro,
2008-08-17,-1.80, 0.93, -1.10, 1.85, 1.76, 7.75, repro,
2008-08-18,-0.23, 0.82, 1.81, 1.89, 1.82, 7.92, repro,
2008-08-19,-3.80, 0.14, 3.71, 2.13, 1.99, 8.66, repro,
2008-08-20,-2.47, 0.39, 9.83, 1.81, 1.75, 7.61, repro,
2008-08-21,-2.07, 1.44, 11.46, 1.89, 1.93, 8.01, repro,
2008-08-22,-2.91, -0.45, 1.53, 1.87, 1.85, 7.86, repro,
2008-08-23,-2.03, -2.44, 9.01, 1.90, 1.82, 8.07, repro,
2008-08-24,-2.97, -0.67, 9.09, 1.83, 1.77, 7.79, repro,
2008-08-25,-4.63, -0.11, 16.34, 2.20, 2.06, 9.18, repro,
2008-08-27,-3.19, 0.55, 8.49, 1.83, 1.78, 7.85, repro,
2008-08-28,-2.44, 0.88, 8.83, 1.88, 1.87, 7.99, repro,
2008-08-29,-0.74, 0.63, 4.82, 2.09, 1.92, 8.64, repro,
2008-08-30,-3.04, 1.53, 6.28, 1.80, 1.75, 7.71, repro,
2008-08-31,-1.94, -1.66, 0.03, 1.91, 1.80, 8.04, repro,
2008-09-01,-1.57, -1.18, 12.18, 1.93, 1.86, 8.05, repro,
2008-09-02,-3.02, -1.51, 10.07, 1.86, 1.84, 7.76, repro,
2008-09-03,-1.95, -0.69, 10.28, 1.80, 1.75, 7.68, repro,
2008-09-04,-1.96, -0.60, 11.06, 2.09, 1.89, 8.36, repro,
2008-09-05,-3.53, 1.02, 3.46, 1.89, 1.79, 8.02, repro,
2008-09-06,-3.57, 3.00, 6.93, 1.81, 1.76, 7.76, repro,
2008-09-07,-2.73, -0.59, 5.12, 1.82, 1.76, 7.67, repro,
2008-09-08,-0.29, -0.02, -4.63, 1.82, 1.75, 7.61, repro,
2008-09-09,-1.28, 0.15, 1.79, 1.77, 1.76, 7.61, repro,
2008-09-10,-2.32, 1.14, 6.16, 1.99, 1.88, 8.47, repro,
2008-09-11,-2.76, 1.87, 4.62, 1.99, 1.84, 8.27, repro,
2008-09-12,-2.31, 0.43, -0.54, 1.95, 1.85, 8.15, repro,
2008-09-13,-0.13, -0.33, 7.45, 1.83, 1.81, 7.81, repro,
2008-09-14,-2.23, 0.91, 3.01, 1.81, 1.78, 7.71, repro,
2008-09-15,-2.16, -0.14, -6.01, 1.83, 1.79, 7.74, repro,
2008-09-16,-1.42, 0.58, -1.69, 1.85, 1.79, 7.99, repro,
2008-09-17,-2.51, -1.69, 1.61, 1.84, 1.79, 7.84, repro,
2008-09-18,-1.57, 0.72, -6.83, 1.79, 1.75, 7.49, repro,
2008-09-19,-2.01, -0.09, -1.41, 1.75, 1.73, 7.43, repro,
2008-09-20,-2.87, 0.88, -6.63, 1.75, 1.75, 7.53, repro,
2008-09-21,-3.66, 0.78, 2.16, 1.79, 1.76, 7.58, repro,
2008-09-22,-0.60, 0.18, -1.80, 1.84, 1.75, 7.66, repro,
2008-09-23,-1.70, -0.28, 0.99, 1.78, 1.75, 7.58, repro,
2008-09-25,-2.97, -0.80, 2.40, 1.76, 1.72, 7.41, repro,
2008-09-26,-2.61, 1.18, 7.19, 1.76, 1.74, 7.48, repro,
2008-09-27,-1.29, -0.10, 8.92, 1.85, 1.77, 7.62, repro,
2008-09-28,-1.76, 0.92, 6.13, 1.83, 1.88, 7.75, repro,
2008-09-29,-1.75, -1.47, -5.07, 1.84, 1.80, 7.73, repro,
2008-09-30,-2.27, 0.90, 2.77, 1.80, 1.72, 7.55, repro,
2008-10-01,-1.87, 0.54, 1.54, 1.73, 1.70, 7.28, repro,
2008-10-02,0.67, 1.05, 1.93, 1.99, 2.11, 8.78, repro,
2008-10-03,-0.94, 1.06, 2.15, 1.93, 1.87, 8.07, repro,
2008-10-04,-0.23, -0.10, 0.65, 1.76, 1.71, 7.38, repro,
2008-10-05,-1.78, 1.21, -0.92, 1.75, 1.70, 7.29, repro,
2008-10-06,-1.27, 0.35, -0.93, 1.74, 1.70, 7.31, repro,
2008-10-07,-2.14, 1.45, -0.64, 1.80, 1.74, 7.60, repro,
2008-10-08,-2.96, 1.31, 5.42, 1.85, 1.75, 7.74, repro,
2008-10-09,-4.40, 0.70, 8.29, 1.86, 1.78, 7.84, repro,
2008-10-10,1.70, 0.78, 2.08, 1.92, 1.83, 7.94, repro,
2008-10-11,-2.24, 0.08, -3.22, 1.76, 1.73, 7.34, repro,
2008-10-12,-2.89, -0.42, 1.11, 1.73, 1.69, 7.28, repro,
2008-10-13,-0.57, 0.82, -6.23, 1.87, 1.97, 8.05, repro,
2008-10-14,-0.09, -0.80, -1.85, 1.73, 1.69, 7.30, repro,
2008-10-15,1.14, 0.08, -5.56, 1.78, 1.72, 7.40, repro,
2008-10-16,-0.07, -0.25, -5.85, 1.77, 1.72, 7.34, repro,
2008-10-17,-0.80, -0.64, 0.01, 1.74, 1.71, 7.35, repro,
2008-10-18,-2.43, 1.67, 13.66, 1.76, 1.72, 7.48, repro,
2008-10-19,-0.53, 0.84, -0.11, 1.72, 1.68, 7.23, repro,
2008-10-20,0.43, 0.04, -7.25, 1.85, 1.78, 7.78, repro,
2008-10-21,1.21, 0.18, -7.78, 1.74, 1.69, 7.27, repro,
2008-10-22,0.47, -0.04, -0.13, 1.86, 1.80, 7.84, repro,
2008-10-23,-2.29, 0.94, -6.30, 1.77, 1.73, 7.44, repro,
2008-10-24,-3.38, 1.28, -3.67, 1.77, 1.73, 7.47, repro,
2008-10-25,-2.07, 2.17, 3.43, 1.86, 1.85, 7.99, repro,
2008-10-26,-0.54, 1.29, 3.39, 1.76, 1.71, 7.35, repro,
2008-10-27,-1.63, 0.72, -2.89, 1.78, 1.73, 7.47, repro,
2008-10-28,-1.03, 0.83, -4.22, 1.86, 1.99, 7.91, repro,
2008-10-29,0.10, 1.42, -3.47, 1.92, 1.94, 8.16, repro,
2008-10-30,1.08, 0.72, -7.84, 1.75, 1.71, 7.37, repro,
2008-10-31,2.37, 0.15, -6.97, 1.94, 1.99, 8.45, repro,
2008-11-01,0.34, -0.26, -3.70, 1.79, 1.74, 7.51, repro,
2008-11-02,-0.91, -0.51, 1.19, 1.80, 1.82, 7.83, repro,
2008-11-03,-5.13, -0.47, -5.03, 2.47, 2.34, 10.34, repro,
2008-11-04,-3.24, 1.36, -0.04, 2.66, 2.49, 11.06, repro,
2008-11-05,-3.26, 1.27, 2.19, 4.26, 3.65, 15.91, repro,
2008-11-06,0.47, 1.36, 0.23, 1.76, 1.72, 7.37, repro,
2008-11-07,1.26, 0.08, 1.23, 1.78, 1.75, 7.40, repro,
2008-11-08,-0.23, 1.83, -1.79, 1.79, 1.73, 7.53, repro,
2008-11-09,1.08, 1.99, 6.07, 1.77, 1.75, 7.45, repro,
2008-11-10,1.09, 1.86, 1.83, 1.78, 1.75, 7.43, repro,
2008-11-11,0.82, 0.71, -0.39, 1.75, 1.71, 7.33, repro,
2008-11-12,-1.83, 1.70, -5.65, 1.74, 1.71, 7.33, repro,
2008-11-13,-1.65, 2.60, 0.48, 2.01, 2.12, 8.75, repro,
2008-11-14,-0.61, 0.53, 10.42, 1.82, 1.79, 7.72, repro,
2008-11-15,-0.97, 0.51, 9.25, 1.89, 1.91, 8.02, repro,
2008-11-16,-0.45, 2.35, 1.01, 1.78, 1.73, 7.43, repro,
2008-11-17,2.09, 0.83, -8.71, 1.87, 1.79, 7.80, repro,
2008-11-18,0.40, 1.88, -7.14, 1.74, 1.71, 7.33, repro,
2008-11-19,2.30, 0.97, -11.99, 1.76, 1.75, 7.44, repro,
2008-11-20,-0.54, 2.43, -8.83, 1.80, 1.78, 7.63, repro,
2008-11-21,0.34, 1.46, -15.08, 1.81, 1.76, 7.57, repro,
2008-11-22,1.27, 0.68, -19.57, 1.79, 1.79, 7.63, repro,
2008-11-23,0.51, 1.22, -18.18, 1.92, 1.90, 8.28, repro,
2008-11-24,2.30, 1.95, -12.98, 2.17, 2.22, 8.98, repro,
2008-11-25,0.07, 2.00, -15.34, 1.81, 1.79, 7.63, repro,
2008-11-26,0.89, 2.45, -5.10, 1.77, 1.73, 7.40, repro,
2008-11-27,2.22, 1.30, -7.14, 1.84, 1.80, 7.60, repro,
2008-11-28,-1.95, 0.51, 3.94, 2.21, 2.11, 9.43, repro,
2008-11-29,-1.39, -0.17, 8.52, 2.25, 2.35, 10.01, repro,
2008-11-30,-3.54, 0.72, 5.61, 2.01, 2.00, 8.59, repro,
2008-12-01,0.51, 1.99, 4.60, 1.91, 1.87, 7.97, repro,
2008-12-02,0.17, 1.77, 0.55, 1.77, 1.73, 7.43, repro,
2008-12-03,1.93, 1.90, -4.61, 1.77, 1.75, 7.47, repro,
2008-12-04,0.90, 1.44, -8.46, 1.82, 1.76, 7.69, repro,
2008-12-05,-1.31, 2.23, -12.39, 1.76, 1.74, 7.43, repro,
2008-12-06,0.13, 1.22, -6.30, 1.76, 1.75, 7.47, repro,
2008-12-07,0.08, 2.65, -4.84, 1.76, 1.73, 7.42, repro,
2008-12-08,1.44, 1.73, -9.30, 1.77, 1.76, 7.45, repro,
2008-12-09,-1.85, 1.36, -5.52, 1.78, 1.77, 7.59, repro,
2008-12-10,-3.10, 2.03, -0.92, 1.91, 1.90, 7.97, repro,
2008-12-11,-1.56, 0.97, -6.84, 2.25, 2.31, 9.45, repro,
2008-12-12,0.36, 1.69, -6.61, 1.83, 1.83, 7.79, repro,
2008-12-13,-5.89, 0.12, 6.82, 4.99, 5.21, 21.12, repro,
2008-12-15,-4.92, -0.38, -4.12, 5.79, 6.07, 21.29, repro,
2008-12-16,-0.79, 1.18, -9.44, 1.74, 1.70, 7.34, repro,
2008-12-17,1.43, 0.25, -5.21, 1.75, 1.72, 7.47, repro,
2008-12-18,0.00, 0.13, -4.07, 1.79, 1.79, 7.67, repro,
2008-12-19,0.00, 1.71, -10.12, 1.79, 1.76, 7.48, repro,
2008-12-20,-1.30, -0.27, -5.66, 1.77, 1.75, 7.45, repro,
2008-12-21,-2.55, 0.04, -9.54, 1.76, 1.76, 7.46, repro,
2008-12-22,-0.74, 0.41, -8.66, 1.87, 1.91, 8.03, repro,
2008-12-23,0.19, 1.32, -10.33, 1.76, 1.74, 7.44, repro,
2008-12-24,-2.18, 0.24, -10.08, 1.79, 1.78, 7.58, repro,
2008-12-25,-0.34, 0.23, -6.29, 1.74, 1.70, 7.33, repro,
2008-12-26,-2.20, -0.70, -8.16, 1.73, 1.70, 7.33, repro,
2008-12-27,-0.15, 0.04, -12.95, 1.77, 1.73, 7.42, repro,
2008-12-28,0.83, -0.68, -2.12, 1.76, 1.75, 7.46, repro,
2008-12-29,-0.58, 1.23, 1.04, 1.75, 1.72, 7.46, repro,
2008-12-30,1.11, 0.91, -6.51, 1.79, 1.76, 7.71, repro,
2008-12-31,0.13, 0.49, -4.04, 1.74, 1.70, 7.33, repro,
2009-01-01,0.00, 0.74, -6.59, 1.81, 1.84, 7.94, repro,
2009-01-02,-1.08, -0.34, -9.41, 1.79, 1.80, 7.66, repro,
2009-01-03,-1.77, 1.16, -3.04, 1.79, 1.80, 7.69, repro,
2009-01-04,-1.11, 1.35, -3.45, 1.78, 1.73, 7.55, repro,
2009-01-05,0.31, 0.86, -2.11, 1.80, 1.80, 7.78, repro,
2009-01-06,-2.17, 0.46, 1.62, 1.78, 1.77, 7.68, repro,
2009-01-07,-3.08, -0.05, 9.15, 1.84, 1.89, 7.83, repro,
2009-01-08,-0.94, 0.82, 7.59, 1.84, 1.80, 7.74, repro,